Theta_e
323 327 329 330 331 331 334 337 339 341 341 343 347 348 348 348 347 346 345 342 342 344 346 347 348 348 344 336 336 335 332 331 330
322 324 328 329 331 331 333 335 338 341 342 343 346 348 348 347 348 347 345 343 343 345 346 348 345 347 343 337 335 335 332 331 330
322 324 326 328 330 331 334 335 338 341 343 343 345 348 348 348 348 348 347 346 343 343 344 344 344 344 342 337 334 336 334 330 330
323 324 325 327 329 331 333 335 337 340 342 343 344 346 347 348 348 349 349 348 346 344 343 342 342 343 341 338 333 336 335 332 331
324 326 326 327 328 330 332 334 336 340 342 343 344 347 347 346 347 347 348 349 349 346 342 342 341 343 341 339 337 333 336 334 334
321 325 325 325 326 327 329 333 335 339 342 344 344 345 347 347 347 348 347 347 350 349 346 342 342 342 341 340 338 335 335 336 334
318 321 322 325 325 326 327 332 335 338 343 345 345 346 346 346 347 348 348 348 347 349 350 346 342 342 342 342 341 338 337 335 335
317 318 321 323 325 325 326 329 334 337 342 346 346 346 346 347 349 349 350 350 349 348 349 349 346 343 342 343 341 341 338 337 335
315 317 320 320 324 327 328 329 333 337 340 346 348 346 347 349 349 350 351 351 351 349 348 349 346 344 343 342 342 334 334 339 337
314 317 321 318 319 323 328 330 334 335 338 343 348 348 348 349 349 349 350 352 352 350 348 348 346 345 344 342 343 329 330 335 338
313 316 315 316 319 320 327 331 334 337 339 342 346 348 349 350 350 349 350 351 352 352 351 349 348 344 344 343 343 327 326 333 339
314 316 316 318 322 323 325 330 334 336 337 340 345 346 348 350 352 351 351 350 351 353 353 351 350 347 344 343 343 324 323 329 338
311 309 314 317 323 326 325 328 334 336 336 339 343 347 348 351 352 352 352 352 352 353 354 353 351 349 347 340 344 321 320 328 338
316 319 318 313 318 326 329 328 333 335 337 338 342 346 350 350 352 352 353 353 354 354 353 353 351 350 350 345 343 327 317 323 338
317 320 326 319 313 314 322 330 330 331 334 339 342 343 344 348 350 352 352 352 353 354 353 352 351 351 346 345 338 321 315 319 325
336 337 338 339 335 333 336 320 333 329 332 336 337 338 341 342 346 350 352 351 352 353 353 351 349 346 341 338 336 327 315 315 315
336 338 340 341 341 339 340 344 339 335 336 333 332 335 337 340 342 346 350 352 353 353 351 350 344 341 338 336 334 333 325 321 320
335 337 338 339 342 342 342 343 342 344 345 339 334 336 335 339 343 343 332 317 336 352 335 344 341 338 338 334 333 331 319 319 321
332 333 334 336 336 339 341 340 341 342 342 341 344 341 335 331 328 326 324 324 320 308 313 313 313 315 327 327 317 307 305 301 304
326 331 331 333 335 337 338 335 336 335 338 337 333 330 329 329 328 330 330 328 328 326 320 310 305 302 305 312 311 301 299 300 300
Wind_Speed
25 24 23 25 25 23 22 23 22 21 21 20 19 19 19 16 16 11 10 9 6 6 6 7 9 9 9 7 7 7 6 4 4
22 24 25 26 25 22 22 22 24 24 22 22 20 21 17 16 14 14 11 10 9 7 7 7 9 11 10 8 8 8 7 5 6
20 23 23 24 23 23 20 20 20 21 22 24 22 22 18 16 16 15 12 10 11 9 8 9 10 10 10 8 8 8 8 5 5
21 23 24 24 22 20 23 21 20 22 21 21 20 19 18 17 15 14 12 12 11 12 10 10 10 11 11 10 10 9 9 7 7
18 22 22 19 21 20 19 20 19 21 21 21 21 20 19 19 17 14 14 14 12 12 13 11 11 11 11 11 11 10 11 10 8
12 16 14 16 18 16 17 18 19 20 21 23 20 19 19 18 18 16 17 17 15 13 14 13 12 12 13 13 13 12 12 11 10
12 14 16 18 16 17 17 20 20 20 21 21 21 20 20 20 19 19 17 17 16 15 15 14 14 14 14 14 14 13 13 12 11
5 8 15 17 18 16 14 16 17 17 17 17 19 20 20 22 19 18 17 17 16 15 15 15 14 13 13 13 13 11 13 13 13
10 11 15 16 17 17 20 21 21 21 19 20 20 21 23 20 19 18 18 17 16 15 15 15 13 14 15 15 11 16 19 17 13
11 13 17 14 15 15 14 18 20 22 23 20 21 22 20 20 19 19 18 16 15 16 17 15 15 16 16 16 16 18 21 20 12
12 11 10 10 8 8 15 18 18 18 16 18 20 21 19 18 20 20 18 17 18 17 15 17 16 14 16 14 13 18 19 22 13
9 11 11 10 10 9 9 14 14 13 13 17 18 18 19 19 19 19 18 19 20 16 15 14 16 13 14 16 12 17 19 17 11
8 6 5 7 8 4 7 8 14 15 14 16 18 19 21 20 20 19 20 21 20 18 17 17 12 13 15 14 12 16 19 17 8
7 5 5 3 5 10 12 9 11 17 17 20 23 21 20 18 19 20 21 18 15 16 16 14 14 15 12 11 12 11 19 18 10
4 7 6 5 6 8 7 7 9 12 16 21 19 18 17 18 19 16 15 18 15 15 15 15 15 13 10 10 10 15 15 17 11
7 7 5 4 5 6 6 2 7 12 17 14 14 12 15 17 17 17 16 17 17 14 17 15 14 12 10 10 8 11 22 17 12
7 6 7 6 8 10 10 8 6 5 7 4 5 11 13 11 13 14 15 12 12 13 12 11 9 11 10 9 10 9 10 8 8
7 8 8 9 11 10 9 7 9 10 9 2 4 4 3 2 4 6 6 7 4 8 3 10 9 7 6 4 9 2 4 12 9
7 9 7 10 9 10 8 7 8 10 12 13 11 10 8 7 7 8 9 10 11 15 16 17 15 15 11 14 10 7 10 8 13
9 11 10 10 9 7 6 6 8 7 9 13 13 12 11 8 7 8 13 12 14 12 14 13 8 4 10 18 21 18 14 10 12
Wind_Direction
208 203 203 207 208 204 199 195 194 190 190 194 191 193 198 198 199 198 200 197 192 195 189 197 184 190 189 179 169 172 171 177 176
208 205 201 206 209 206 201 196 194 193 191 195 192 195 197 197 197 199 194 194 196 189 189 193 187 189 184 175 179 178 175 178 183
211 208 203 208 207 205 201 200 199 195 195 194 191 192 195 196 198 200 193 189 194 189 189 192 182 184 185 176 182 182 178 180 182
210 204 205 205 209 203 202 197 190 196 194 195 196 193 195 198 200 199 193 195 196 192 184 189 184 184 184 182 186 184 187 189 181
219 215 214 203 204 204 199 196 190 192 193 194 198 194 192 198 197 194 195 203 199 192 193 191 186 183 185 188 192 190 194 194 192
234 224 206 199 208 198 193 192 193 191 193 197 195 195 195 198 198 194 198 205 199 196 195 192 191 188 190 191 193 192 201 196 194
210 195 192 193 200 202 191 192 194 193 196 193 193 193 197 198 199 198 200 204 204 196 199 193 192 194 195 195 195 196 196 195 199
222 209 194 199 199 186 186 186 192 195 195 196 193 193 196 203 199 200 201 204 205 204 199 200 195 189 193 193 197 199 194 196 201
204 211 207 195 195 191 195 188 189 190 191 193 191 195 202 196 199 199 201 202 202 200 202 203 188 192 191 192 199 196 192 194 198
210 214 212 198 193 200 198 196 196 191 189 184 191 199 200 197 198 202 202 197 198 202 201 194 196 196 191 197 203 188 192 193 197
215 218 195 203 208 206 200 202 195 195 186 188 193 196 196 199 199 201 198 196 204 205 200 200 199 193 195 196 206 189 187 190 199
224 202 198 195 196 205 204 191 184 180 184 187 189 198 200 198 200 202 198 199 203 203 201 200 204 193 187 201 205 179 183 181 190
218 205 218 196 199 179 165 188 156 161 176 184 197 196 201 199 197 200 201 202 202 199 201 207 197 195 198 197 189 179 181 177 177
161 142 213 166 165 191 200 161 169 177 177 196 204 200 202 198 200 201 205 201 202 199 198 199 195 197 193 180 180 172 166 168 167
144 121 106 119 175 201 193 163 172 202 194 206 205 202 200 201 202 198 194 197 195 195 190 196 199 191 173 169 163 150 161 164 160
68 58 43 48 65 51 41 324 209 190 225 219 203 191 197 199 197 199 200 193 186 189 190 191 191 180 176 168 163 152 159 178 155
70 55 47 29 44 48 42 29 23 319 327 279 194 201 210 205 193 195 193 190 189 189 195 186 179 188 174 164 166 171 147 138 141
65 55 46 51 53 47 41 39 43 32 19 355 196 224 256 201 154 146 89 38 269 191 144 157 148 128 110 318 96 111 260 152 156
50 54 44 49 47 57 36 34 47 52 52 55 62 62 51 57 75 65 82 77 63 19 85 98 117 121 135 126 142 171 168 126 124
41 52 54 55 59 52 41 34 54 45 78 85 82 86 77 61 48 114 109 101 98 68 358 18 117 161 174 148 137 138 118 126 127